Content
SEND FEEDBACK

Daily
Averages
Monthly
Summary
United States of America

YIGO, GUAM


Home > North America > United States > Guam
Elevation: 162 meters     Latitude: 13 32N     Longitude: 144 53E

WEATHER
 
SELECT A DAY
Number of Records: 209,106;   Date Range: 1/1/95 - 8/12/14
 
SHARE

PRINT THIS DATA

[ ← Previous Day ]
WEATHER ALMANAC - 21 AUGUST, 2013
[ Next Day → ]
[ °F ]   °C
Weather ElementAverageHighLow
Temperature27.5 °C31 °C (3:04 pm)24 °C (9:50 am)
Dewpoint24.6 °C25.6 °C (5:54 am)23 °C (9:50 am)
Humidity84.5 %97 % (5:54 am)66 % (3:04 pm)
Barometer1008.8 hPa1010.8 hPa (9:34 am)1006.4 hPa (3:54 pm)
Wind Speed11.4 km/h29.6 km/h (9:34 am)
Wind Gust40.7 km/h (9:34 am)
Weather ElementAverage
Visibility14.2 km
Wind DirectionENE (53.4 °)

Weather ElementTotal
Precipitation23.37 mm
Cooling Degree Days9.2 (Base 18.3)
Growing Degree Days17.5 (Base 10)
Averaged from 35 records on 21 August, 2013
WEATHER CONDITIONS BREAKOUT
WIND DIRECTION BREAKOUT
WEATHER BY HOUR - 21 AUGUST, 2013
[ °F ]   °C
Local TimeTemperatureDewpointHumidityBarometerVisibilityWind DirectionWind SpeedGust SpeedPrecipitationEventsConditions
1:54 AM27.2 °C25 °C88 %1008.8 hPa16.1 kmNE (50°)9.3 km/hPartly Cloudy
2:54 AM27.8 °C25 °C85 %1008.5 hPa16.1 kmSE (130°)5.6 km/hMostly Cloudy
3:54 AM27.2 °C25 °C88 %1008.5 hPa16.1 kmENE (70°)11.1 km/h1.52 mmScattered Clouds
4:54 AM26.7 °C25 °C90 %1008.5 hPa16.1 kmCalm0 mmRainLight Rain
5:12 AM27 °C25 °C89 %1009.1 hPa16.1 kmCalm0 mmMostly Cloudy
5:54 AM26.1 °C25.6 °C97 %1008.8 hPa16.1 kmCalm0 mmMostly Cloudy
6:54 AM26.7 °C25 °C90 %1008.8 hPa16.1 kmNNE (30°)7.4 km/hMostly Cloudy
7:54 AM27.2 °C25 °C88 %1009.5 hPa16.1 kmNE (50°)11.1 km/hPartly Cloudy
8:54 AM28.3 °C25.6 °C85 %1010.2 hPa16.1 kmCalmScattered Clouds
9:34 AM26 °C24 °C89 %1010.8 hPa2.9 kmENE (60°)29.6 km/h40.7 km/h0.76 mmRainHeavy Rain
9:43 AM25 °C24 °C94 %1010.8 hPa3.2 kmNE (40°)24.1 km/h3.3 mmRainLight Rain
9:50 AM24 °C23 °C94 %1010.8 hPa9.7 kmNE (40°)14.8 km/h3.56 mmRain-ThunderstormLight Thunderstorms and Rain
9:51 AM24.4 °C23.3 °C94 %1010.2 hPa9.7 kmNE (40°)14.8 km/h3.56 mmRain-ThunderstormLight Thunderstorms and Rain
10:38 AM26 °C24 °C89 %1010.5 hPa16.1 kmNNE (30°)13 km/h0 mmScattered Clouds
10:54 AM26.7 °C24.4 °C87 %1009.8 hPa16.1 kmNE (40°)9.3 km/h0 mmScattered Clouds
11:54 AM30 °C25 °C74 %1008.8 hPa16.1 kmENE (70°)16.7 km/hPartly Cloudy
12:54 PM28.9 °C24.4 °C76 %1008.5 hPa16.1 kmNE (40°)13 km/hClear
1:54 PM29.4 °C25 °C77 %1008.1 hPa16.1 kmNNE (30°)14.8 km/hScattered Clouds
2:06 PM29 °C25 °C79 %1008.8 hPa16.1 kmNNE (20°)16.7 km/hMostly Cloudy
2:54 PM30.6 °C23.9 °C67 %1007.1 hPa16.1 kmCalmMostly Cloudy
3:04 PM31 °C24 °C66 %1007.5 hPa16.1 kmEast (100°)5.6 km/hScattered Clouds
3:30 PM30 °C24 °C70 %1007.5 hPa16.1 kmNE (40°)14.8 km/hMostly Cloudy
3:39 PM30 °C24 °C70 %1007.5 hPa16.1 kmNE (50°)13 km/hScattered Clouds
3:54 PM30 °C23.9 °C70 %1006.4 hPa16.1 kmENE (70°)16.7 km/hScattered Clouds
4:54 PM28.9 °C23.9 °C74 %1006.8 hPa16.1 kmENE (70°)13 km/hClear
5:54 PM28.9 °C25 °C79 %1007.5 hPa16.1 kmENE (60°)14.8 km/hPartly Cloudy
6:54 PM27.8 °C24.4 °C82 %1008.1 hPa16.1 kmENE (70°)11.1 km/hScattered Clouds
7:54 PM27.2 °C25 °C88 %1008.5 hPa16.1 kmNE (50°)5.6 km/hClear
8:54 PM26.7 °C25 °C90 %1008.8 hPa16.1 kmNE (50°)7.4 km/hScattered Clouds
9:54 PM26.1 °C25 °C94 %1009.1 hPa16.1 kmNE (50°)11.1 km/h0.51 mmClear
10:36 PM26 °C25 °C94 %1010.2 hPa4 kmESE (120°)16.7 km/h0.51 mmRainHeavy Rain
10:39 PM26 °C24 °C89 %1010.2 hPa4.8 kmSE (130°)11.1 km/h25.9 km/h2.54 mmRainHeavy Rain
10:49 PM27 °C25 °C89 %1010.2 hPa11.3 kmEast (90°)16.7 km/h3.3 mmRainLight Rain
10:54 PM26.7 °C25 °C90 %1009.5 hPa14.5 kmEast (90°)18.5 km/h27.8 km/h3.56 mmRainLight Rain
11:54 PM25.6 °C24.4 °C93 %1009.1 hPa16.1 kmEast (90°)11.1 km/h0.25 mmClear
Hourly data recorded from PGUM, located 0 kilometers away from Yigo, Guam







STORIES FROM OUR PARTNERS